Weather History for KRRT - November, 2012

Change the Weather History Date:

Tuesday, November 6, 2012

  Actual Average Record
Temperature  
Mean Temperature 34 °F -  
Max Temperature 35 °F 38 °F 66 °F (1975)
Min Temperature 33 °F 21 °F -7 °F (1991)
Degree Days  
Heating Degree Days 31    
Moisture  
Dew Point 31 °F    
Average Humidity 85    
Maximum Humidity 87    
Minimum Humidity 81    
Precipitation  
Precipitation 0.03 in - - ()
Sea Level Pressure  
Sea Level Pressure 29.78 in    
Wind  
Wind Speed 10 mph (WNW)    
Max Wind Speed 16 mph    
Max Gust Speed 21 mph    
Visibility 8 miles    
Events Rain , Snow    
Averages and records for this station are not official NWS values.
T = Trace of Precipitation, MM = Missing Value Source: NWS Daily Summary

Daily Weather History Graph

Daily Weather History Graph

Search for Another Location

Airport or City:

Trip Planner

Search our weather history database for the weather conditions in past years. The results will help you decide how hot, cold, wet, or windy it might be!

Date:

Astronomy

Nov. 06, 2012 Rise Set
Actual Time 7:17 AM CST 4:52 PM CST
Civil Twilight 6:43 AM CST 5:25 PM CST
Nautical Twilight 6:05 AM CST 6:03 PM CST
Astronomical Twilight 5:28 AM CST 6:40 PM CST
Moon 11:38 PM CST (11/6) 1:05 PM CST (11/6)
Length of Visible Light 10h 42m
Length of Day
9h 34m
Waning Gibbous, 53% of the Moon is Illuminated
Nov 6
Waning Gibbous
Nov 6
Last Quarter
Nov 13
New
Nov 20
First Quarter
Nov 28
Full

Hourly Weather History & Observations

Time (CST) Temp. Windchill Dew Point Humidity Pressure Visibility Wind Dir Wind Speed Gust Speed Precip Events Conditions
12:14 AM 33.8 °F 25.3 °F 28.4 °F 81% 29.67 in 5.0 mi SSE 11.5 mph - 0.01 in Snow Light Snow
12:34 AM 33.8 °F 25.8 °F 30.2 °F 87% 29.66 in 7.0 mi SSE 10.4 mph 17.3 mph 0.01 in Rain Light Rain
12:54 AM 33.8 °F 25.3 °F 30.2 °F 87% 29.65 in 7.0 mi South 11.5 mph - 0.01 in   Light Drizzle
1:14 AM 33.8 °F 25.8 °F 30.2 °F 87% 29.65 in 5.0 mi South 10.4 mph - N/A Rain Light Rain
1:34 AM 33.8 °F 27.0 °F 30.2 °F 87% 29.64 in 7.0 mi South 8.1 mph - N/A Rain Light Rain
1:54 AM 33.8 °F 26.4 °F 30.2 °F 87% 29.63 in 7.0 mi South 9.2 mph - 0.01 in Rain Light Rain
2:12 AM 33.8 °F 27.0 °F 30.2 °F 87% 29.63 in 5.0 mi South 8.1 mph - N/A Rain Light Rain
2:34 AM 33.8 °F 26.4 °F 30.2 °F 87% 29.61 in 4.0 mi South 9.2 mph - 0.01 in   Light Drizzle
2:53 AM 33.8 °F 27.7 °F 30.2 °F 87% 29.61 in 3.0 mi South 6.9 mph - 0.01 in   Overcast
3:14 AM 33.8 °F 27.7 °F 30.2 °F 87% 29.61 in 4.0 mi South 6.9 mph - N/A   Overcast
3:34 AM 33.8 °F 29.6 °F 30.2 °F 87% 29.60 in 4.0 mi SSW 4.6 mph - N/A   Overcast
3:53 AM 35.6 °F 31.7 °F 30.2 °F 81% 29.61 in 5.0 mi SW 4.6 mph - N/A   Overcast
4:14 AM 35.6 °F 29.9 °F 30.2 °F 81% 29.61 in 5.0 mi West 6.9 mph - N/A   Overcast
4:34 AM 35.6 °F 29.9 °F 30.2 °F 81% 29.61 in 5.0 mi West 6.9 mph - N/A   Light Drizzle
4:54 AM 35.6 °F 29.2 °F 30.2 °F 81% 29.61 in 5.0 mi West 8.1 mph - N/A   Overcast
5:14 AM 35.6 °F 30.7 °F 30.2 °F 81% 29.62 in 7.0 mi West 5.8 mph - N/A   Overcast
5:34 AM 35.6 °F 29.9 °F 30.2 °F 81% 29.62 in 7.0 mi WSW 6.9 mph - N/A   Overcast
5:54 AM 35.6 °F 29.2 °F 30.2 °F 81% 29.62 in 7.0 mi West 8.1 mph - N/A   Overcast
6:14 AM 35.6 °F 28.6 °F 30.2 °F 81% 29.62 in 7.0 mi West 9.2 mph - N/A   Overcast
6:34 AM 35.6 °F 28.6 °F 30.2 °F 81% 29.63 in 7.0 mi West 9.2 mph 16.1 mph N/A   Overcast
6:54 AM 35.6 °F 29.2 °F 30.2 °F 81% 29.63 in 4.0 mi West 8.1 mph - N/A   Overcast
7:14 AM 35.6 °F 28.6 °F 30.2 °F 81% 29.64 in 3.0 mi WNW 9.2 mph - N/A   Overcast
7:34 AM 33.8 °F 26.4 °F 30.2 °F 87% 29.65 in 2.5 mi West 9.2 mph - N/A   Overcast
7:54 AM 33.8 °F 25.8 °F 30.2 °F 87% 29.66 in 2.5 mi WNW 10.4 mph - N/A   Overcast
8:13 AM 33.8 °F 25.3 °F 30.2 °F 87% 29.67 in 5.0 mi West 11.5 mph - N/A   Overcast
8:34 AM 33.8 °F 27.0 °F 30.2 °F 87% 29.67 in 10.0 mi West 8.1 mph - N/A   Overcast
8:54 AM 33.8 °F 24.8 °F 30.2 °F 87% 29.68 in 10.0 mi WNW 12.7 mph 16.1 mph N/A   Overcast
9:13 AM 35.6 °F 28.0 °F 30.2 °F 81% 29.68 in 7.0 mi WNW 10.4 mph - N/A Snow Light Snow
9:34 AM 33.8 °F 25.3 °F 30.2 °F 87% 29.69 in 7.0 mi WNW 11.5 mph 18.4 mph N/A   Overcast
9:54 AM 33.8 °F 24.3 °F 30.2 °F 87% 29.70 in 5.0 mi NW 13.8 mph 20.7 mph N/A Rain Light Rain
10:13 AM 33.8 °F 24.3 °F 30.2 °F 87% 29.70 in 5.0 mi WNW 13.8 mph 19.6 mph N/A   Overcast
10:34 AM 33.8 °F 24.8 °F 30.2 °F 87% 29.72 in 4.0 mi NW 12.7 mph - N/A Snow Light Snow
10:54 AM 35.6 °F 27.1 °F 30.2 °F 81% 29.73 in 7.0 mi NW 12.7 mph - N/A Snow Light Snow
11:13 AM 35.6 °F 25.9 °F 30.2 °F 81% 29.74 in 10.0 mi NW 16.1 mph 19.6 mph N/A   Overcast
11:34 AM 35.6 °F 26.2 °F 32.0 °F 87% 29.75 in 10.0 mi NW 15.0 mph 20.7 mph N/A Snow Light Snow
11:54 AM 35.6 °F 27.1 °F 30.2 °F 81% 29.75 in 5.0 mi NW 12.7 mph - N/A Snow Light Snow
12:14 PM 35.6 °F 27.1 °F 30.2 °F 81% 29.76 in 10.0 mi NW 12.7 mph - N/A Rain Light Rain
12:34 PM 35.6 °F 26.6 °F 32.0 °F 87% 29.77 in 10.0 mi NW 13.8 mph 17.3 mph N/A   Overcast
12:54 PM 35.6 °F 27.1 °F 32.0 °F 87% 29.78 in 10.0 mi NW 12.7 mph 18.4 mph N/A Rain Light Rain
1:14 PM 35.6 °F 27.5 °F 32.0 °F 87% 29.79 in 10.0 mi NW 11.5 mph 18.4 mph N/A Rain Light Rain
1:34 PM 35.6 °F 27.1 °F 30.2 °F 81% 29.80 in 10.0 mi NW 12.7 mph 18.4 mph N/A Rain Rain
1:54 PM 35.6 °F 26.2 °F 30.2 °F 81% 29.81 in 10.0 mi NW 15.0 mph 20.7 mph N/A Rain Light Rain
2:14 PM 35.6 °F 27.1 °F 32.0 °F 87% 29.82 in 10.0 mi NW 12.7 mph - N/A Rain Light Rain
2:34 PM 35.6 °F 27.1 °F 32.0 °F 87% 29.83 in 10.0 mi NW 12.7 mph 18.4 mph N/A   Light Drizzle
2:54 PM 35.6 °F 27.1 °F 32.0 °F 87% 29.84 in 10.0 mi NW 12.7 mph 20.7 mph N/A   Overcast
3:14 PM 35.6 °F 27.1 °F 32.0 °F 87% 29.85 in 10.0 mi NW 12.7 mph - N/A   Overcast
3:34 PM 35.6 °F 27.1 °F 32.0 °F 87% 29.86 in 10.0 mi NW 12.7 mph - N/A Rain Light Rain
3:54 PM 35.6 °F 27.1 °F 32.0 °F 87% 29.88 in 10.0 mi NW 12.7 mph 17.3 mph N/A   Overcast
4:14 PM 35.6 °F 26.6 °F 32.0 °F 87% 29.89 in 10.0 mi NW 13.8 mph - N/A   Overcast
4:34 PM 35.6 °F 27.1 °F 32.0 °F 87% 29.90 in 10.0 mi NW 12.7 mph 18.4 mph N/A   Overcast
4:54 PM 35.6 °F 28.0 °F 32.0 °F 87% 29.91 in 10.0 mi WNW 10.4 mph - N/A   Overcast
5:14 PM 35.6 °F 28.6 °F 30.2 °F 81% 29.91 in 10.0 mi NW 9.2 mph - N/A   Overcast
5:34 PM 35.6 °F 28.0 °F 30.2 °F 81% 29.92 in 10.0 mi WNW 10.4 mph 16.1 mph N/A   Overcast
5:54 PM 35.6 °F 28.6 °F 32.0 °F 87% 29.93 in 10.0 mi NW 9.2 mph - N/A   Overcast
6:14 PM 35.6 °F 29.2 °F 32.0 °F 87% 29.94 in 10.0 mi WNW 8.1 mph - N/A   Overcast
6:34 PM 35.6 °F 29.2 °F 32.0 °F 87% 29.94 in 7.0 mi WNW 8.1 mph - N/A   Overcast
6:53 PM 35.6 °F 29.2 °F 32.0 °F 87% 29.95 in 10.0 mi NW 8.1 mph - N/A   Overcast
7:14 PM 35.6 °F 29.2 °F 32.0 °F 87% 29.95 in 10.0 mi NW 8.1 mph - N/A   Overcast
7:34 PM 35.6 °F 29.9 °F 32.0 °F 87% 29.95 in 10.0 mi NW 6.9 mph - N/A   Overcast
7:54 PM 35.6 °F 29.9 °F 32.0 °F 87% 29.95 in 10.0 mi NW 6.9 mph - N/A   Overcast
8:14 PM 35.6 °F 29.9 °F 32.0 °F 87% 29.95 in 10.0 mi NW 6.9 mph - N/A   Overcast
8:33 PM 35.6 °F 30.7 °F 32.0 °F 87% 29.95 in 10.0 mi WNW 5.8 mph - N/A   Overcast
8:54 PM 35.6 °F 30.7 °F 32.0 °F 87% 29.96 in 10.0 mi WNW 5.8 mph - N/A   Overcast
9:14 PM 35.6 °F 29.9 °F 32.0 °F 87% 29.96 in 10.0 mi WNW 6.9 mph - N/A   Overcast
9:34 PM 35.6 °F 29.9 °F 32.0 °F 87% 29.96 in 10.0 mi NW 6.9 mph - N/A   Overcast
9:54 PM 35.6 °F 29.2 °F 32.0 °F 87% 29.97 in 10.0 mi NW 8.1 mph - N/A   Overcast
10:14 PM 35.6 °F 29.9 °F 32.0 °F 87% 29.97 in 7.0 mi NW 6.9 mph - N/A   Overcast
10:34 PM 35.6 °F 29.9 °F 32.0 °F 87% 29.97 in 7.0 mi NW 6.9 mph - N/A   Overcast
10:54 PM 35.6 °F 31.7 °F 32.0 °F 87% 29.97 in 5.0 mi WNW 4.6 mph - N/A   Overcast
11:13 PM 35.6 °F 31.7 °F 32.0 °F 87% 29.97 in 10.0 mi WNW 4.6 mph - N/A   Overcast
11:34 PM 35.6 °F 30.7 °F 32.0 °F 87% 29.97 in 10.0 mi West 5.8 mph - N/A   Overcast
11:54 PM 35.6 °F 30.7 °F 32.0 °F 87% 29.98 in 10.0 mi West 5.8 mph - N/A   Overcast